Location: Newark
(42.8481°N, 0.4872°E)
Time: 23:02:33
(UTC+00:00)

SR - Pass Details

Date: 02 November 2020
Orbit: 579 x 876 km, 66.7° (Epoch: 29 November)

Event Time Altitude Azimuth Distance (km) Brightness Sun altitude
Rises 01:43:36 0° 234° (SW) 2,785 - -51.7°
Reaches altitude 10° 01:45:58 10° 244° (WSW) 1,896 - -51.4°
Maximum altitude 01:49:49 33° 309° (NW) 1,000 - -50.8°
Drops below altitude 10° 01:53:50 10° 15° (NNE) 1,982 - -50.2°
Sets 01:56:21 0° 25° (NNE) 2,932 - -49.8°
